Location: Newark
(41.1200°N, 81.9000°W)
Time: 17:17:22
(UTC+00:00)

ISS - Visible Passes

Search period start: 19 July 2019 00:00
Search period end: 29 July 2019 00:00
Orbit: 409 x 418 km, 51.6° (Epoch: 20 July)

Date Brightness Start Highest point End Pass type
(mag) Time Alt. Az. Time Alt. Az. Time Alt. Az.
19 Jul -3.6 01:37:59 10° SW 01:41:13 49° SE 01:44:27 10° ENE visible
19 Jul -1.4 03:15:11 10° W 03:18:03 26° NNW 03:20:56 10° NE visible
19 Jul -0.4 04:53:49 10° NW 04:55:36 14° N 04:57:23 10° NNE visible
19 Jul -1.0 06:30:46 10° NNW 06:33:15 19° NNE 06:35:45 10° ENE visible
19 Jul -3.8 08:07:00 10° NW 08:10:20 84° NE 08:13:38 10° SE visible
20 Jul -2.2 02:25:29 10° W 02:28:38 37° NNW 02:31:46 10° NE visible
20 Jul -0.5 04:04:01 10° NW 04:06:01 15° N 04:08:01 10° NNE visible
20 Jul -0.7 05:41:34 10° NNW 05:43:43 16° NNE 05:45:53 10° NE visible
20 Jul -1.3 07:17:46 10° NW 07:18:34 16° NW 07:18:34 16° NW visible
21 Jul -3.1 01:35:56 10° WSW 01:39:15 60° NNW 01:42:33 10° NE visible
21 Jul -0.7 03:14:09 10° WNW 03:16:27 17° NNW 03:18:45 10° NNE visible
21 Jul -0.5 04:52:15 10° NNW 04:54:09 14° N 04:56:02 10° NE visible
21 Jul -0.8 06:28:34 10° NW 06:28:59 13° NW 06:28:59 13° NW visible
22 Jul -1.0 02:24:16 10° WNW 02:26:55 21° NNW 02:29:34 10° NNE visible
22 Jul -0.6 04:02:47 10° NNW 04:04:32 13° N 04:06:19 10° NNE visible
22 Jul -0.8 05:39:23 10° NW 05:40:31 16° NNW 05:40:31 16° NNW visible
23 Jul -1.5 01:34:28 10° W 01:37:25 28° NNW 01:40:23 10° NE visible
23 Jul -0.7 03:13:05 10° NW 03:14:55 14° N 03:16:45 10° NNE visible
23 Jul -1.0 04:50:11 10° NNW 04:52:21 18° N 04:52:21 18° N visible
24 Jul -0.8 02:23:14 10° NW 02:25:18 15° N 02:27:22 10° NNE visible
24 Jul -0.9 04:00:55 10° NNW 04:03:01 15° N 04:04:18 13° NE visible
25 Jul -0.9 01:33:18 10° WNW 01:35:42 18° NNW 01:38:06 10° NNE visible
25 Jul -0.8 03:11:32 10° NNW 03:13:23 14° N 03:15:13 10° NE visible
25 Jul -0.9 04:47:54 10° NW 04:49:09 18° NNW 04:49:09 18° NNW visible
26 Jul -0.8 02:21:57 10° NNW 02:23:44 14° N 02:25:30 10° NNE visible
26 Jul -1.4 03:58:41 10° NNW 04:01:14 21° NNE 04:01:14 21° NNE visible
27 Jul -0.9 01:32:10 10° NW 01:34:04 14° N 01:35:58 10° NNE visible
27 Jul -1.2 03:09:26 10° NNW 03:11:45 17° NNE 03:13:21 13° NE visible
27 Jul -0.7 04:45:38 10° NW 04:46:09 14° NW 04:46:09 14° NW visible
28 Jul -1.0 02:20:05 10° NNW 02:22:06 15° N 02:24:07 10° NE visible
28 Jul -1.7 03:56:20 10° NW 03:58:19 28° NNW 03:58:19 28° NNW visible
